QPF
0.00 0.00 0.00 0.00 0.00 0.00 0.01 0.01 0.01 0.00 0.00 0.00 0.00 0.01 0.00 0.00 0.01 0.02 0.01 0.01 0.00 0.00 0.01 0.00 0.01 0.01 0.00 0.01 0.01 0.01 0.01 0.00 0.00 0.01 0.01 0.01 0.01 0.01 0.02 0.02 0.02 0.01 0.01 0.01 0.01 0.00 0.00 0.00 0.00
0.00 0.00 0.00 0.00 0.00 0.00 0.00 0.00 0.00 0.00 0.00 0.00 0.00 0.00 0.00 0.01 0.01 0.01 0.01 0.01 0.00 0.00 0.01 0.00 0.01 0.01 0.00 0.00 0.00 0.00 0.00 0.00 0.00 0.01 0.01 0.01 0.01 0.01 0.02 0.02 0.02 0.02 0.02 0.01 0.01 0.01 0.01 0.01 0.01
0.00 0.00 0.00 0.00 0.00 0.00 0.01 0.00 0.01 0.01 0.00 0.00 0.00 0.00 0.00 0.01 0.00 0.00 0.00 0.00 0.00 0.00 0.00 0.00 0.01 0.01 0.00 0.00 0.00 0.00 0.00 0.00 0.00 0.01 0.01 0.01 0.01 0.01 0.01 0.01 0.01 0.01 0.01 0.01 0.01 0.01 0.01 0.01 0.01
0.00 0.00 0.00 0.00 0.00 0.00 0.00 0.00 0.00 0.00 0.00 0.00 0.00 0.00 0.00 0.00 0.00 0.00 0.00 0.00 0.00 0.00 0.00 0.00 0.00 0.00 0.00 0.00 0.00 0.00 0.00 0.01 0.01 0.01 0.01 0.01 0.01 0.01 0.01 0.01 0.01 0.01 0.01 0.01 0.01 0.01 0.01 0.01 0.00
0.00 0.00 0.00 0.00 0.00 0.00 0.00 0.00 0.00 0.01 0.01 0.01 0.01 0.00 0.01 0.01 0.00 0.00 0.00 0.00 0.00 0.00 0.01 0.00 0.01 0.00 0.00 0.00 0.00 0.00 0.00 0.01 0.01 0.01 0.01 0.01 0.01 0.01 0.01 0.02 0.02 0.02 0.02 0.02 0.02 0.02 0.01 0.01 0.01
0.00 0.00 0.00 0.00 0.00 0.00 0.00 0.00 0.01 0.00 0.00 0.01 0.01 0.01 0.01 0.01 0.01 0.00 0.00 0.00 0.00 0.01 0.01 0.01 0.01 0.01 0.01 0.01 0.00 0.01 0.01 0.01 0.01 0.02 0.02 0.02 0.02 0.02 0.02 0.02 0.02 0.02 0.02 0.03 0.03 0.03 0.02 0.02 0.01
0.00 0.00 0.00 0.00 0.00 0.00 0.00 0.00 0.01 0.00 0.00 0.00 0.00 0.00 0.01 0.02 0.02 0.01 0.01 0.01 0.01 0.01 0.01 0.01 0.01 0.01 0.01 0.01 0.01 0.01 0.01 0.01 0.02 0.02 0.02 0.03 0.03 0.03 0.03 0.03 0.03 0.02 0.02 0.03 0.03 0.03 0.03 0.02 0.01
0.00 0.00 0.00 0.00 0.00 0.00 0.00 0.00 0.00 0.01 0.01 0.00 0.01 0.01 0.00 0.01 0.01 0.01 0.01 0.01 0.01 0.01 0.01 0.01 0.01 0.02 0.02 0.02 0.02 0.02 0.02 0.02 0.03 0.03 0.03 0.03 0.03 0.03 0.03 0.03 0.03 0.02 0.02 0.03 0.03 0.03 0.04 0.04 0.03
0.00 0.00 0.00 0.00 0.00 0.00 0.00 0.00 0.00 0.01 0.01 0.01 0.01 0.02 0.01 0.00 0.01 0.01 0.01 0.01 0.01 0.01 0.01 0.01 0.01 0.01 0.02 0.02 0.02 0.02 0.02 0.02 0.02 0.02 0.02 0.02 0.02 0.03 0.03 0.02 0.02 0.02 0.02 0.03 0.03 0.04 0.05 0.04 0.04
0.00 0.00 0.00 0.00 0.00 0.00 0.00 0.00 0.00 0.01 0.01 0.02 0.01 0.02 0.01 0.01 0.01 0.01 0.01 0.01 0.01 0.01 0.01 0.01 0.01 0.02 0.02 0.02 0.02 0.03 0.02 0.02 0.02 0.01 0.01 0.02 0.03 0.03 0.03 0.03 0.03 0.03 0.04 0.05 0.06 0.06 0.05 0.05 0.05
0.00 0.00 0.00 0.00 0.00 0.00 0.01 0.01 0.00 0.00 0.01 0.01 0.02 0.03 0.02 0.02 0.02 0.01 0.01 0.01 0.01 0.01 0.01 0.01 0.01 0.01 0.02 0.02 0.02 0.02 0.03 0.02 0.02 0.02 0.02 0.03 0.03 0.03 0.03 0.03 0.02 0.03 0.05 0.06 0.06 0.05 0.03 0.04 0.05
0.00 0.00 0.00 0.00 0.00 0.00 0.00 0.00 0.00 0.01 0.01 0.02 0.06 0.05 0.04 0.03 0.02 0.01 0.01 0.01 0.02 0.02 0.02 0.01 0.01 0.02 0.02 0.02 0.02 0.03 0.03 0.03 0.03 0.03 0.03 0.04 0.03 0.03 0.03 0.03 0.03 0.05 0.06 0.08 0.07 0.05 0.04 0.04 0.05
0.00 0.00 0.00 0.00 0.00 0.00 0.00 0.01 0.01 0.01 0.01 0.02 0.07 0.10 0.07 0.03 0.02 0.01 0.01 0.01 0.02 0.02 0.02 0.01 0.02 0.03 0.03 0.04 0.04 0.04 0.04 0.04 0.04 0.05 0.06 0.05 0.05 0.04 0.04 0.04 0.06 0.07 0.08 0.09 0.08 0.06 0.05 0.05 0.06
0.00 0.00 0.00 0.01 0.01 0.01 0.01 0.01 0.01 0.01 0.01 0.01 0.02 0.04 0.05 0.04 0.03 0.02 0.02 0.03 0.03 0.02 0.02 0.04 0.05 0.06 0.07 0.07 0.06 0.05 0.04 0.04 0.05 0.07 0.09 0.07 0.05 0.04 0.05 0.06 0.07 0.08 0.08 0.09 0.09 0.08 0.09 0.09 0.08
0.00 0.00 0.00 0.00 0.00 0.01 0.01 0.01 0.01 0.01 0.01 0.01 0.04 0.04 0.03 0.03 0.03 0.04 0.04 0.03 0.03 0.04 0.04 0.05 0.07 0.09 0.11 0.09 0.08 0.08 0.06 0.04 0.05 0.05 0.05 0.06 0.05 0.07 0.11 0.12 0.09 0.07 0.07 0.07 0.07 0.07 0.10 0.08 0.08
0.00 0.00 0.00 0.01 0.00 0.01 0.01 0.01 0.01 0.01 0.01 0.01 0.05 0.07 0.05 0.04 0.03 0.03 0.04 0.04 0.04 0.05 0.06 0.07 0.08 0.08 0.08 0.08 0.08 0.08 0.07 0.06 0.04 0.03 0.04 0.05 0.05 0.06 0.08 0.09 0.08 0.08 0.08 0.07 0.08 0.08 0.09 0.09 0.11
0.00 0.00 0.00 0.00 0.00 0.01 0.01 0.01 0.01 0.01 0.01 0.02 0.07 0.10 0.09 0.08 0.05 0.05 0.04 0.03 0.04 0.05 0.06 0.07 0.08 0.07 0.07 0.08 0.07 0.07 0.08 0.10 0.05 0.03 0.04 0.04 0.06 0.07 0.06 0.06 0.06 0.08 0.08 0.07 0.08 0.09 0.09 0.10 0.10
0.00 0.00 0.00 0.00 0.00 0.00 0.00 0.01 0.01 0.01 0.01 0.01 0.04 0.06 0.07 0.05 0.04 0.05 0.05 0.05 0.05 0.06 0.07 0.07 0.08 0.07 0.06 0.07 0.07 0.06 0.06 0.06 0.06 0.05 0.05 0.05 0.06 0.06 0.08 0.08 0.08 0.09 0.09 0.08 0.09 0.10 0.10 0.11 0.12
0.00 0.00 0.00 0.00 0.00 0.00 0.00 0.01 0.01 0.01 0.01 0.01 0.01 0.02 0.02 0.02 0.03 0.05 0.06 0.08 0.07 0.07 0.07 0.06 0.05 0.05 0.04 0.06 0.06 0.07 0.08 0.07 0.06 0.05 0.05 0.05 0.05 0.05 0.07 0.08 0.09 0.10 0.09 0.11 0.13 0.13 0.13 0.12 0.13
0.00 0.00 0.00 0.00 0.00 0.00 0.00 0.01 0.01 0.01 0.01 0.01 0.02 0.02 0.02 0.03 0.03 0.05 0.07 0.11 0.10 0.08 0.06 0.05 0.04 0.03 0.04 0.06 0.11 0.09 0.06 0.04 0.04 0.04 0.04 0.05 0.06 0.06 0.07 0.07 0.08 0.10 0.10 0.10 0.12 0.14 0.14 0.15 0.15
0.00 0.00 0.00 0.00 0.00 0.00 0.00 0.01 0.01 0.01 0.02 0.02 0.02 0.03 0.05 0.05 0.05 0.06 0.07 0.07 0.05 0.05 0.05 0.05 0.04 0.05 0.04 0.06 0.07 0.07 0.05 0.03 0.03 0.03 0.03 0.04 0.07 0.08 0.08 0.07 0.08 0.10 0.12 0.12 0.11 0.12 0.14 0.16 0.16
0.00 0.00 0.00 0.00 0.00 0.00 0.00 0.01 0.00 0.00 0.01 0.01 0.02 0.04 0.05 0.06 0.08 0.09 0.08 0.06 0.04 0.06 0.06 0.04 0.03 0.04 0.04 0.05 0.06 0.05 0.05 0.05 0.04 0.04 0.03 0.04 0.06 0.07 0.07 0.06 0.07 0.08 0.08 0.07 0.07 0.10 0.14 0.15 0.15
0.00 0.00 0.00 0.00 0.00 0.00 0.00 0.00 0.00 0.00 0.00 0.01 0.02 0.05 0.08 0.06 0.06 0.07 0.06 0.05 0.05 0.06 0.07 0.05 0.04 0.03 0.03 0.03 0.05 0.05 0.05 0.04 0.04 0.04 0.04 0.05 0.05 0.05 0.05 0.04 0.04 0.04 0.04 0.06 0.07 0.09 0.11 0.12 0.11
0.00 0.00 0.00 0.00 0.00 0.00 0.00 0.00 0.00 0.00 0.00 0.00 0.02 0.03 0.05 0.05 0.04 0.04 0.04 0.04 0.04 0.06 0.07 0.05 0.04 0.04 0.04 0.03 0.03 0.05 0.05 0.06 0.06 0.05 0.04 0.04 0.04 0.03 0.02 0.02 0.02 0.02 0.02 0.04 0.06 0.06 0.08 0.09 0.10
0.00 0.00 0.00 0.01 0.01 0.00 0.00 0.00 0.00 0.00 0.00 0.00 0.01 0.01 0.02 0.04 0.04 0.03 0.04 0.05 0.06 0.05 0.05 0.04 0.04 0.04 0.04 0.04 0.04 0.05 0.06 0.07 0.07 0.06 0.04 0.03 0.02 0.02 0.01 0.01 0.01 0.01 0.02 0.03 0.05 0.05 0.05 0.06 0.07
0.00 0.00 0.00 0.00 0.00 0.00 0.00 0.00 0.00 0.00 0.00 0.00 0.00 0.00 0.01 0.01 0.02 0.02 0.03 0.04 0.05 0.05 0.04 0.04 0.04 0.04 0.04 0.04 0.04 0.04 0.05 0.06 0.06 0.05 0.03 0.02 0.01 0.01 0.01 0.01 0.01 0.01 0.02 0.02 0.05 0.07 0.06 0.05 0.05
0.00 0.00 0.00 0.00 0.00 0.00 0.00 0.00 0.00 0.01 0.01 0.01 0.01 0.01 0.01 0.01 0.01 0.03 0.04 0.04 0.04 0.05 0.05 0.04 0.03 0.04 0.04 0.03 0.03 0.03 0.03 0.04 0.04 0.03 0.02 0.02 0.02 0.01 0.01 0.00 0.01 0.01 0.01 0.02 0.03 0.06 0.09 0.09 0.08
0.00 0.00 0.00 0.00 0.01 0.01 0.00 0.01 0.01 0.01 0.01 0.01 0.01 0.01 0.01 0.01 0.02 0.04 0.07 0.07 0.06 0.05 0.04 0.03 0.03 0.04 0.03 0.03 0.03 0.03 0.02 0.03 0.04 0.04 0.03 0.01 0.01 0.01 0.01 0.01 0.01 0.01 0.01 0.01 0.03 0.05 0.07 0.09 0.10
0.00 0.00 0.00 0.00 0.00 0.01 0.01 0.01 0.01 0.01 0.01 0.01 0.01 0.01 0.01 0.01 0.03 0.06 0.05 0.03 0.04 0.03 0.02 0.03 0.04 0.04 0.04 0.04 0.03 0.02 0.01 0.02 0.03 0.03 0.03 0.01 0.01 0.01 0.01 0.01 0.01 0.01 0.01 0.01 0.01 0.02 0.03 0.06 0.08
0.00 0.00 0.00 0.01 0.01 0.01 0.01 0.01 0.01 0.01 0.00 0.01 0.02 0.01 0.01 0.01 0.02 0.05 0.03 0.03 0.02 0.02 0.02 0.03 0.04 0.04 0.04 0.04 0.02 0.01 0.02 0.02 0.03 0.03 0.03 0.02 0.02 0.01 0.01 0.01 0.01 0.01 0.00 0.01 0.01 0.02 0.03 0.04 0.07
MSLP
1010.65 1010.85 1011.11 1011.35 1011.53 1011.61 1011.59 1011.51 1011.42 1011.36 1011.37 1011.44 1011.56 1011.66 1011.69 1011.61 1011.42 1011.15 1010.87 1010.67 1010.63 1010.81 1011.22 1011.82 1012.52 1013.20 1013.76 1014.12 1014.26 1014.22 1014.07 1013.92 1013.87 1013.98 1014.27 1014.69 1015.17 1015.62 1015.97 1016.15 1016.18 1016.10 1015.97 1015.86 1015.84 1015.91 1016.06 1016.26 1016.45
1010.73 1010.96 1011.22 1011.44 1011.58 1011.61 1011.53 1011.37 1011.18 1011.02 1010.92 1010.90 1010.92 1010.95 1010.96 1010.89 1010.76 1010.58 1010.41 1010.34 1010.43 1010.72 1011.22 1011.87 1012.59 1013.28 1013.85 1014.22 1014.40 1014.40 1014.31 1014.22 1014.21 1014.33 1014.59 1014.94 1015.32 1015.66 1015.89 1015.99 1015.96 1015.87 1015.77 1015.72 1015.77 1015.91 1016.12 1016.35 1016.54
1010.97 1011.20 1011.45 1011.64 1011.73 1011.69 1011.54 1011.31 1011.05 1010.80 1010.62 1010.52 1010.48 1010.47 1010.45 1010.40 1010.30 1010.20 1010.12 1010.14 1010.31 1010.67 1011.21 1011.88 1012.62 1013.32 1013.90 1014.32 1014.56 1014.65 1014.65 1014.64 1014.68 1014.81 1015.03 1015.30 1015.56 1015.77 1015.88 1015.89 1015.81 1015.72 1015.65 1015.67 1015.78 1015.99 1016.23 1016.47 1016.64
1011.28 1011.52 1011.74 1011.89 1011.93 1011.84 1011.64 1011.35 1011.04 1010.75 1010.52 1010.37 1010.28 1010.24 1010.21 1010.16 1010.10 1010.03 1010.00 1010.07 1010.29 1010.67 1011.21 1011.88 1012.60 1013.31 1013.92 1014.39 1014.71 1014.90 1015.00 1015.08 1015.18 1015.32 1015.50 1015.69 1015.85 1015.93 1015.94 1015.87 1015.77 1015.68 1015.66 1015.73 1015.90 1016.14 1016.41 1016.63 1016.76
1011.55 1011.79 1012.00 1012.11 1012.12 1011.99 1011.76 1011.46 1011.13 1010.83 1010.58 1010.41 1010.31 1010.26 1010.22 1010.17 1010.11 1010.05 1010.05 1010.13 1010.34 1010.71 1011.23 1011.86 1012.56 1013.25 1013.87 1014.39 1014.78 1015.06 1015.26 1015.43 1015.58 1015.74 1015.89 1016.01 1016.09 1016.09 1016.03 1015.92 1015.81 1015.74 1015.76 1015.88 1016.09 1016.35 1016.60 1016.79 1016.86
1011.70 1011.94 1012.13 1012.23 1012.21 1012.07 1011.84 1011.55 1011.24 1010.96 1010.73 1010.58 1010.48 1010.42 1010.38 1010.33 1010.27 1010.22 1010.21 1010.28 1010.47 1010.80 1011.27 1011.85 1012.50 1013.15 1013.76 1014.29 1014.73 1015.07 1015.34 1015.56 1015.76 1015.93 1016.07 1016.16 1016.19 1016.16 1016.07 1015.96 1015.87 1015.83 1015.89 1016.05 1016.27 1016.53 1016.75 1016.88 1016.88
1011.68 1011.91 1012.09 1012.17 1012.15 1012.03 1011.82 1011.56 1011.30 1011.06 1010.87 1010.75 1010.67 1010.63 1010.59 1010.55 1010.49 1010.44 1010.42 1010.47 1010.63 1010.92 1011.33 1011.84 1012.42 1013.02 1013.58 1014.09 1014.52 1014.88 1015.18 1015.43 1015.65 1015.83 1015.97 1016.06 1016.09 1016.06 1015.98 1015.90 1015.85 1015.86 1015.96 1016.14 1016.36 1016.59 1016.77 1016.84 1016.79
1011.51 1011.74 1011.90 1011.98 1011.96 1011.85 1011.68 1011.46 1011.25 1011.06 1010.92 1010.83 1010.79 1010.77 1010.76 1010.73 1010.68 1010.64 1010.62 1010.67 1010.80 1011.05 1011.40 1011.84 1012.34 1012.85 1013.35 1013.80 1014.20 1014.53 1014.81 1015.06 1015.28 1015.47 1015.62 1015.72 1015.77 1015.77 1015.74 1015.71 1015.71 1015.77 1015.89 1016.08 1016.29 1016.48 1016.62 1016.64 1016.54
1011.28 1011.48 1011.63 1011.70 1011.68 1011.59 1011.45 1011.27 1011.09 1010.94 1010.84 1010.79 1010.78 1010.79 1010.80 1010.80 1010.78 1010.76 1010.77 1010.81 1010.94 1011.15 1011.45 1011.83 1012.25 1012.68 1013.09 1013.47 1013.79 1014.08 1014.32 1014.54 1014.74 1014.93 1015.09 1015.21 1015.30 1015.34 1015.37 1015.39 1015.43 1015.52 1015.66 1015.84 1016.03 1016.19 1016.28 1016.28 1016.16
1011.08 1011.26 1011.38 1011.44 1011.42 1011.33 1011.19 1011.02 1010.87 1010.74 1010.65 1010.62 1010.63 1010.66 1010.70 1010.74 1010.76 1010.77 1010.80 1010.87 1011.00 1011.20 1011.47 1011.80 1012.15 1012.51 1012.85 1013.15 1013.41 1013.62 1013.82 1014.00 1014.18 1014.35 1014.52 1014.66 1014.78 1014.87 1014.93 1014.99 1015.06 1015.16 1015.29 1015.45 1015.61 1015.74 1015.81 1015.79 1015.68
1011.00 1011.15 1011.25 1011.29 1011.25 1011.14 1010.99 1010.81 1010.63 1010.49 1010.40 1010.36 1010.38 1010.42 1010.48 1010.54 1010.60 1010.65 1010.72 1010.82 1010.97 1011.17 1011.43 1011.73 1012.05 1012.36 1012.65 1012.89 1013.10 1013.28 1013.43 1013.58 1013.74 1013.90 1014.06 1014.21 1014.34 1014.44 1014.52 1014.59 1014.66 1014.74 1014.85 1014.97 1015.10 1015.20 1015.26 1015.25 1015.16
1011.09 1011.22 1011.30 1011.31 1011.24 1011.09 1010.90 1010.68 1010.46 1010.28 1010.15 1010.08 1010.07 1010.10 1010.17 1010.25 1010.33 1010.42 1010.52 1010.65 1010.82 1011.04 1011.31 1011.61 1011.92 1012.23 1012.50 1012.74 1012.93 1013.10 1013.24 1013.38 1013.52 1013.67 1013.82 1013.96 1014.07 1014.16 1014.22 1014.26 1014.29 1014.34 1014.40 1014.48 1014.57 1014.66 1014.72 1014.73 1014.68
1011.36 1011.47 1011.53 1011.50 1011.39 1011.20 1010.95 1010.67 1010.38 1010.13 1009.94 1009.82 1009.77 1009.78 1009.82 1009.90 1009.99 1010.10 1010.22 1010.37 1010.57 1010.81 1011.10 1011.43 1011.77 1012.10 1012.41 1012.68 1012.91 1013.10 1013.26 1013.41 1013.55 1013.68 1013.81 1013.92 1014.00 1014.04 1014.05 1014.04 1014.01 1013.99 1014.00 1014.03 1014.09 1014.16 1014.23 1014.26 1014.26
1011.75 1011.86 1011.89 1011.83 1011.68 1011.44 1011.13 1010.77 1010.42 1010.09 1009.83 1009.64 1009.53 1009.49 1009.50 1009.55 1009.63 1009.73 1009.86 1010.02 1010.23 1010.49 1010.81 1011.17 1011.57 1011.96 1012.34 1012.68 1012.97 1013.22 1013.43 1013.60 1013.75 1013.88 1013.98 1014.04 1014.07 1014.05 1013.98 1013.89 1013.79 1013.71 1013.65 1013.64 1013.67 1013.73 1013.81 1013.88 1013.91
1012.19 1012.29 1012.31 1012.22 1012.03 1011.75 1011.39 1010.97 1010.55 1010.15 1009.81 1009.55 1009.37 1009.27 1009.23 1009.24 1009.29 1009.36 1009.47 1009.62 1009.83 1010.11 1010.45 1010.86 1011.31 1011.77 1012.23 1012.66 1013.03 1013.35 1013.62 1013.83 1013.99 1014.10 1014.17 1014.18 1014.14 1014.05 1013.92 1013.75 1013.58 1013.43 1013.33 1013.28 1013.29 1013.34 1013.44 1013.53 1013.61
1012.62 1012.71 1012.71 1012.61 1012.40 1012.08 1011.68 1011.22 1010.74 1010.28 1009.88 1009.55 1009.30 1009.13 1009.04 1008.99 1008.99 1009.03 1009.10 1009.23 1009.43 1009.71 1010.07 1010.50 1011.00 1011.53 1012.06 1012.56 1013.01 1013.39 1013.70 1013.94 1014.10 1014.20 1014.23 1014.20 1014.10 1013.95 1013.75 1013.53 1013.30 1013.11 1012.97 1012.89 1012.89 1012.95 1013.06 1013.18 1013.29
1012.99 1013.07 1013.05 1012.94 1012.73 1012.40 1011.98 1011.50 1010.98 1010.47 1010.01 1009.61 1009.30 1009.07 1008.91 1008.81 1008.76 1008.75 1008.79 1008.89 1009.06 1009.32 1009.68 1010.13 1010.65 1011.21 1011.78 1012.33 1012.82 1013.24 1013.58 1013.83 1013.98 1014.06 1014.05 1013.98 1013.84 1013.64 1013.41 1013.16 1012.91 1012.70 1012.54 1012.46 1012.45 1012.52 1012.64 1012.77 1012.91
1013.28 1013.34 1013.33 1013.22 1013.02 1012.70 1012.28 1011.79 1011.25 1010.70 1010.19 1009.73 1009.36 1009.06 1008.84 1008.68 1008.57 1008.52 1008.53 1008.59 1008.74 1008.99 1009.33 1009.77 1010.28 1010.85 1011.42 1011.97 1012.47 1012.89 1013.22 1013.45 1013.58 1013.63 1013.60 1013.51 1013.35 1013.14 1012.90 1012.65 1012.41 1012.20 1012.05 1011.97 1011.97 1012.04 1012.16 1012.31 1012.46
1013.50 1013.56 1013.55 1013.47 1013.29 1012.99 1012.59 1012.10 1011.54 1010.96 1010.40 1009.88 1009.43 1009.07 1008.78 1008.57 1008.43 1008.34 1008.32 1008.37 1008.50 1008.72 1009.04 1009.45 1009.94 1010.47 1011.01 1011.53 1011.99 1012.38 1012.67 1012.87 1012.97 1013.00 1012.95 1012.85 1012.69 1012.50 1012.29 1012.07 1011.86 1011.68 1011.54 1011.48 1011.47 1011.54 1011.66 1011.82 1011.98
1013.69 1013.76 1013.77 1013.72 1013.57 1013.31 1012.93 1012.44 1011.87 1011.25 1010.62 1010.04 1009.52 1009.08 1008.73 1008.47 1008.29 1008.19 1008.16 1008.20 1008.33 1008.54 1008.84 1009.22 1009.66 1010.14 1010.62 1011.07 1011.48 1011.80 1012.04 1012.20 1012.28 1012.29 1012.24 1012.15 1012.03 1011.88 1011.71 1011.54 1011.37 1011.23 1011.12 1011.06 1011.05 1011.10 1011.21 1011.36 1011.53
1013.89 1013.97 1014.02 1014.02 1013.91 1013.69 1013.33 1012.84 1012.24 1011.56 1010.87 1010.20 1009.60 1009.08 1008.68 1008.37 1008.17 1008.06 1008.04 1008.10 1008.23 1008.44 1008.73 1009.08 1009.48 1009.90 1010.32 1010.70 1011.04 1011.30 1011.50 1011.62 1011.67 1011.68 1011.65 1011.59 1011.51 1011.41 1011.31 1011.19 1011.07 1010.96 1010.87 1010.80 1010.78 1010.81 1010.89 1011.01 1011.17
1014.10 1014.22 1014.32 1014.37 1014.32 1014.13 1013.79 1013.29 1012.66 1011.92 1011.15 1010.39 1009.70 1009.10 1008.63 1008.29 1008.07 1007.97 1007.97 1008.05 1008.22 1008.44 1008.73 1009.07 1009.43 1009.81 1010.17 1010.50 1010.78 1011.00 1011.16 1011.26 1011.31 1011.33 1011.33 1011.31 1011.28 1011.24 1011.18 1011.11 1011.03 1010.94 1010.85 1010.78 1010.73 1010.71 1010.75 1010.83 1010.97
1014.34 1014.50 1014.66 1014.77 1014.77 1014.63 1014.30 1013.80 1013.13 1012.33 1011.48 1010.63 1009.85 1009.18 1008.65 1008.27 1008.04 1007.95 1007.97 1008.10 1008.29 1008.55 1008.85 1009.19 1009.53 1009.88 1010.20 1010.50 1010.74 1010.94 1011.09 1011.19 1011.26 1011.30 1011.33 1011.35 1011.36 1011.37 1011.35 1011.31 1011.25 1011.17 1011.07 1010.97 1010.88 1010.82 1010.80 1010.84 1010.95
1014.58 1014.79 1015.00 1015.17 1015.24 1015.14 1014.84 1014.34 1013.65 1012.81 1011.89 1010.97 1010.11 1009.37 1008.78 1008.37 1008.13 1008.05 1008.10 1008.26 1008.49 1008.77 1009.09 1009.43 1009.78 1010.11 1010.42 1010.69 1010.93 1011.12 1011.28 1011.39 1011.48 1011.56 1011.61 1011.67 1011.71 1011.73 1011.74 1011.71 1011.66 1011.57 1011.45 1011.32 1011.19 1011.08 1011.01 1011.00 1011.06
1014.81 1015.05 1015.32 1015.55 1015.67 1015.63 1015.38 1014.90 1014.21 1013.36 1012.41 1011.44 1010.52 1009.73 1009.11 1008.66 1008.41 1008.33 1008.40 1008.57 1008.82 1009.12 1009.45 1009.79 1010.13 1010.46 1010.76 1011.03 1011.27 1011.48 1011.65 1011.79 1011.90 1011.99 1012.06 1012.13 1012.17 1012.20 1012.21 1012.18 1012.11 1012.01 1011.87 1011.71 1011.55 1011.41 1011.29 1011.23 1011.24
1014.99 1015.26 1015.57 1015.86 1016.05 1016.08 1015.89 1015.47 1014.82 1013.99 1013.04 1012.06 1011.13 1010.31 1009.66 1009.19 1008.92 1008.83 1008.88 1009.05 1009.30 1009.59 1009.91 1010.24 1010.56 1010.88 1011.17 1011.44 1011.68 1011.90 1012.08 1012.23 1012.35 1012.44 1012.51 1012.57 1012.60 1012.61 1012.60 1012.55 1012.47 1012.36 1012.21 1012.05 1011.87 1011.70 1011.55 1011.45 1011.41
1015.13 1015.40 1015.74 1016.08 1016.34 1016.45 1016.36 1016.02 1015.45 1014.68 1013.79 1012.84 1011.92 1011.10 1010.43 1009.95 1009.65 1009.53 1009.55 1009.69 1009.90 1010.16 1010.44 1010.73 1011.02 1011.30 1011.57 1011.83 1012.06 1012.27 1012.44 1012.59 1012.70 1012.78 1012.83 1012.85 1012.85 1012.84 1012.80 1012.73 1012.64 1012.53 1012.39 1012.23 1012.06 1011.88 1011.72 1011.59 1011.50
1015.23 1015.50 1015.85 1016.24 1016.57 1016.77 1016.78 1016.55 1016.10 1015.43 1014.62 1013.73 1012.86 1012.06 1011.39 1010.88 1010.55 1010.38 1010.35 1010.43 1010.58 1010.77 1010.99 1011.22 1011.45 1011.68 1011.91 1012.13 1012.33 1012.51 1012.67 1012.79 1012.87 1012.91 1012.92 1012.90 1012.87 1012.81 1012.75 1012.67 1012.59 1012.49 1012.37 1012.23 1012.08 1011.92 1011.76 1011.61 1011.49
1015.33 1015.57 1015.93 1016.35 1016.75 1017.04 1017.15 1017.05 1016.73 1016.18 1015.47 1014.68 1013.86 1013.09 1012.43 1011.90 1011.52 1011.30 1011.20 1011.19 1011.25 1011.36 1011.50 1011.64 1011.80 1011.97 1012.14 1012.30 1012.46 1012.61 1012.72 1012.80 1012.84 1012.84 1012.80 1012.74 1012.66 1012.58 1012.49 1012.42 1012.34 1012.27 1012.19 1012.09 1011.97 1011.84 1011.69 1011.52 1011.37
1015.45 1015.66 1016.02 1016.46 1016.91 1017.28 1017.50 1017.52 1017.31 1016.88 1016.28 1015.57 1014.82 1014.08 1013.42 1012.87 1012.45 1012.15 1011.97 1011.88 1011.85 1011.86 1011.91 1011.97 1012.05 1012.15 1012.25 1012.37 1012.48 1012.57 1012.65 1012.68 1012.68 1012.63 1012.56 1012.45 1012.34 1012.24 1012.15 1012.08 1012.02 1011.98 1011.94 1011.88 1011.80 1011.69 1011.55 1011.38 1011.19
Thickness
5800 5807 5812 5810 5804 5802 5799 5807 5814 5812 5815 5822 5823 5820 5815 5811 5805 5796 5814 5823 5820 5815 5805 5794 5789 5786 5783 5780 5778 5776 5774 5771 5768 5766 5763 5760 5758 5755 5753 5751 5749 5747 5745 5744 5743 5742 5741 5740 5739
5804 5808 5807 5807 5798 5790 5796 5810 5810 5812 5817 5822 5821 5818 5814 5811 5814 5812 5815 5818 5817 5812 5803 5795 5787 5783 5780 5778 5775 5773 5770 5768 5765 5763 5760 5758 5755 5753 5750 5748 5746 5744 5743 5741 5740 5739 5737 5736 5735
5803 5806 5803 5802 5796 5795 5797 5808 5811 5816 5820 5818 5815 5817 5812 5807 5811 5812 5815 5816 5814 5809 5802 5792 5784 5780 5777 5775 5772 5770 5767 5764 5762 5759 5757 5754 5752 5750 5747 5745 5743 5741 5740 5738 5737 5735 5734 5733 5732
5800 5800 5801 5796 5791 5801 5805 5809 5813 5812 5815 5818 5815 5808 5810 5811 5813 5815 5815 5813 5810 5806 5800 5789 5781 5777 5774 5771 5769 5766 5764 5761 5758 5756 5754 5751 5749 5746 5744 5741 5740 5738 5737 5735 5734 5732 5731 5730 5729
5798 5796 5789 5787 5791 5801 5809 5812 5813 5810 5811 5813 5812 5804 5801 5808 5815 5814 5811 5810 5807 5803 5798 5787 5778 5774 5771 5768 5765 5762 5760 5757 5754 5752 5750 5747 5745 5742 5740 5738 5736 5735 5733 5732 5730 5729 5727 5726 5725
5791 5792 5783 5782 5789 5799 5807 5812 5812 5810 5811 5812 5809 5802 5798 5807 5808 5808 5808 5805 5804 5799 5794 5784 5775 5771 5768 5765 5761 5758 5755 5753 5750 5748 5745 5743 5741 5739 5736 5734 5732 5731 5730 5729 5727 5725 5724 5722 5722
5786 5786 5784 5788 5789 5794 5803 5812 5809 5808 5807 5810 5812 5800 5797 5801 5804 5806 5804 5802 5799 5795 5790 5782 5776 5769 5764 5761 5758 5755 5752 5749 5746 5743 5741 5739 5736 5734 5733 5731 5729 5727 5726 5725 5723 5722 5720 5719 5718
5792 5788 5783 5787 5787 5793 5805 5809 5811 5808 5807 5815 5812 5798 5794 5798 5801 5801 5798 5796 5794 5790 5786 5780 5776 5771 5765 5760 5754 5751 5748 5745 5742 5740 5737 5735 5733 5731 5729 5728 5726 5724 5723 5722 5720 5719 5718 5716 5715
5789 5780 5779 5786 5789 5795 5805 5803 5809 5813 5809 5808 5810 5807 5804 5802 5798 5793 5789 5787 5785 5783 5781 5777 5774 5769 5765 5761 5754 5748 5745 5742 5739 5737 5734 5732 5733 5732 5729 5726 5723 5721 5720 5718 5717 5715 5714 5713 5713
5783 5776 5782 5792 5797 5797 5801 5802 5804 5804 5800 5799 5800 5802 5801 5797 5792 5787 5784 5781 5779 5777 5776 5774 5771 5766 5762 5758 5752 5747 5744 5741 5739 5737 5734 5732 5730 5729 5728 5723 5720 5718 5716 5715 5714 5713 5712 5711 5713
5781 5778 5784 5791 5796 5797 5797 5799 5805 5799 5793 5797 5796 5795 5794 5791 5787 5784 5782 5780 5777 5775 5772 5771 5767 5762 5758 5754 5750 5746 5742 5739 5737 5733 5730 5728 5727 5726 5724 5722 5719 5717 5714 5714 5713 5711 5711 5711 5711
5777 5778 5783 5788 5793 5793 5793 5796 5796 5795 5796 5803 5802 5798 5792 5787 5784 5782 5778 5776 5774 5771 5768 5766 5762 5757 5753 5750 5746 5742 5739 5736 5733 5729 5726 5725 5723 5722 5720 5718 5717 5715 5714 5711 5710 5709 5709 5707 5706
5773 5776 5782 5787 5790 5792 5792 5790 5789 5790 5798 5801 5797 5792 5788 5785 5782 5780 5777 5773 5770 5765 5763 5761 5757 5752 5747 5743 5740 5738 5735 5733 5729 5725 5722 5720 5719 5717 5716 5713 5711 5711 5710 5708 5706 5706 5704 5703 5703
5776 5777 5779 5784 5786 5788 5785 5786 5786 5786 5794 5791 5788 5784 5783 5780 5777 5774 5770 5766 5765 5761 5758 5756 5751 5747 5741 5737 5734 5732 5729 5726 5724 5721 5717 5715 5714 5712 5710 5708 5707 5706 5704 5703 5702 5701 5700 5698 5697
5777 5772 5775 5780 5783 5786 5785 5775 5778 5785 5788 5783 5781 5779 5776 5774 5771 5767 5765 5763 5761 5757 5754 5750 5746 5741 5737 5733 5730 5727 5725 5722 5719 5716 5713 5710 5708 5706 5705 5704 5702 5701 5699 5698 5696 5696 5695 5694 5693
5775 5771 5767 5774 5780 5783 5777 5764 5775 5783 5781 5776 5775 5773 5769 5766 5765 5763 5761 5758 5756 5752 5749 5745 5742 5737 5733 5729 5726 5723 5720 5717 5714 5711 5708 5706 5703 5701 5699 5699 5698 5695 5693 5692 5691 5690 5688 5687 5686
5767 5762 5761 5767 5777 5778 5773 5763 5771 5778 5775 5770 5769 5767 5763 5760 5758 5757 5755 5753 5750 5747 5743 5739 5736 5732 5728 5724 5721 5719 5715 5711 5708 5706 5704 5700 5698 5696 5695 5693 5691 5689 5688 5686 5685 5683 5681 5679 5678
5754 5758 5758 5761 5770 5770 5766 5762 5767 5773 5770 5767 5765 5761 5758 5755 5752 5751 5749 5746 5743 5741 5738 5735 5731 5727 5723 5719 5716 5714 5710 5707 5704 5702 5698 5696 5693 5691 5689 5688 5685 5684 5682 5680 5677 5675 5674 5672 5672
5761 5758 5756 5760 5769 5765 5759 5758 5762 5767 5765 5762 5760 5756 5753 5750 5749 5746 5742 5740 5736 5733 5731 5729 5725 5722 5719 5715 5711 5708 5705 5702 5701 5698 5694 5690 5688 5685 5683 5682 5680 5678 5676 5673 5671 5668 5667 5666 5665
5760 5754 5755 5758 5764 5759 5754 5754 5760 5761 5759 5759 5756 5752 5749 5746 5741 5738 5735 5733 5729 5726 5725 5723 5720 5718 5715 5711 5707 5704 5701 5699 5697 5692 5688 5685 5682 5680 5679 5676 5674 5672 5670 5667 5665 5661 5659 5659 5658
5755 5753 5752 5751 5757 5759 5751 5748 5752 5756 5757 5755 5753 5749 5746 5741 5736 5731 5728 5726 5724 5720 5718 5717 5714 5712 5709 5706 5703 5700 5696 5694 5691 5687 5684 5681 5677 5675 5672 5670 5668 5666 5664 5661 5658 5656 5653 5650 5650
5750 5759 5755 5751 5748 5749 5748 5736 5748 5751 5750 5749 5747 5744 5740 5737 5733 5728 5725 5721 5719 5716 5714 5711 5708 5705 5702 5700 5699 5696 5691 5688 5685 5683 5680 5676 5673 5670 5667 5665 5662 5659 5658 5655 5653 5651 5647 5644 5643
5754 5759 5756 5753 5749 5745 5748 5739 5746 5750 5744 5744 5743 5740 5736 5733 5729 5724 5721 5718 5714 5712 5709 5704 5701 5699 5696 5694 5693 5690 5688 5684 5682 5678 5674 5671 5669 5665 5662 5659 5656 5654 5652 5649 5646 5644 5641 5639 5637
5757 5754 5752 5752 5751 5734 5741 5735 5736 5747 5744 5742 5741 5736 5732 5728 5725 5721 5718 5714 5710 5707 5703 5699 5695 5692 5691 5689 5687 5684 5681 5678 5675 5671 5669 5667 5665 5661 5657 5654 5651 5648 5646 5643 5641 5639 5637 5634 5631
5751 5741 5733 5731 5733 5734 5743 5733 5736 5746 5745 5740 5735 5731 5728 5724 5720 5717 5713 5709 5705 5701 5697 5694 5690 5686 5685 5683 5681 5678 5675 5673 5669 5666 5663 5661 5659 5656 5651 5649 5645 5643 5640 5638 5636 5634 5631 5629 5626
5742 5739 5723 5712 5720 5732 5735 5729 5739 5745 5742 5738 5733 5728 5723 5718 5715 5712 5709 5705 5700 5696 5692 5688 5684 5681 5679 5677 5674 5672 5669 5668 5665 5660 5658 5655 5653 5650 5645 5642 5640 5637 5635 5633 5631 5630 5627 5625 5622
5737 5738 5741 5728 5728 5722 5731 5734 5737 5738 5732 5728 5725 5721 5717 5713 5711 5707 5704 5699 5694 5690 5686 5683 5679 5676 5674 5672 5669 5665 5663 5660 5657 5654 5652 5650 5646 5644 5640 5637 5635 5633 5630 5628 5626 5625 5622 5620 5618
5741 5737 5730 5723 5707 5705 5718 5724 5725 5723 5721 5720 5717 5714 5712 5709 5705 5701 5697 5694 5690 5686 5682 5677 5675 5672 5669 5667 5664 5661 5657 5654 5651 5649 5646 5643 5640 5637 5634 5632 5630 5628 5626 5624 5622 5621 5618 5615 5613
5729 5726 5723 5724 5719 5702 5700 5714 5725 5718 5717 5714 5713 5711 5707 5703 5698 5694 5691 5688 5685 5681 5677 5673 5670 5667 5664 5662 5658 5655 5652 5649 5646 5643 5640 5638 5635 5632 5629 5627 5625 5623 5622 5619 5617 5615 5613 5610 5608
5727 5721 5717 5703 5702 5706 5701 5707 5723 5719 5715 5711 5707 5705 5701 5696 5692 5689 5685 5682 5679 5676 5672 5669 5666 5663 5660 5657 5654 5650 5647 5644 5642 5639 5636 5633 5630 5627 5625 5623 5621 5619 5617 5614 5612 5610 5608 5606 5603